,,PA_Meas_PMT16A,,PR_Meas_QMR101_102,,RH_Meas_QMH101,,SR_Meas_QMS101,,TA_Meas_QMH101,,GenWind,,GenWind,
time,status,PA,status,PR,status,RH,status,SR,status,TA,status,DirAvg,status,SpdAvg,
2015-03-20, 07:10:04,VALID,918.737,VALID,0,VALID,98.3497,VALID,59.0926,VALID,20.3074,VALID,134,VALID,0,
2015-03-20, 07:11:04,VALID,918.759,VALID,0,VALID,98.3573,VALID,60.167,VALID,20.3479,VALID,134,VALID,0,
2015-03-20, 07:12:04,VALID,918.785,VALID,0,VALID,98.3649,VALID,58.5554,VALID,20.3269,VALID,134,VALID,0,
2015-03-20, 07:13:04,VALID,918.772,VALID,0,VALID,98.3649,VALID,55.4396,VALID,20.3269,VALID,134,VALID,0,
2015-03-20, 07:14:04,VALID,918.789,VALID,0,VALID,98.3726,VALID,54.9024,VALID,20.3479,VALID,134,VALID,0,
2015-03-20, 07:15:04,VALID,918.804,VALID,0,VALID,98.3649,VALID,55.4396,VALID,20.3269,VALID,134,VALID,0,
2015-03-20, 07:16:04,VALID,918.812,VALID,0,VALID,98.3497,VALID,57.3736,VALID,20.3284,VALID,134,VALID,0,
2015-03-20, 07:17:04,VALID,918.846,VALID,0,VALID,98.3726,VALID,56.0843,VALID,20.2863,VALID,134,VALID,0,
2015-03-20, 07:18:04,VALID,918.885,VALID,0,VALID,98.3573,VALID,56.1917,VALID,20.3269,VALID,134,VALID,0,
2015-03-20, 07:19:04,VALID,918.884,VALID,0,VALID,98.3421,VALID,57.1587,VALID,20.2879,VALID,134,VALID,0,
2015-03-20, 07:20:04,VALID,918.905,VALID,0,VALID,98.3421,VALID,59.0926,VALID,20.2879,VALID,134,VALID,0,
2015-03-20, 07:21:04,VALID,918.928,VALID,0,VALID,98.3192,VALID,62.2084,VALID,20.3074,VALID,134,VALID,0,
2015-03-20, 07:22:04,VALID,918.949,VALID,0,VALID,98.3344,VALID,65.4317,VALID,20.3269,VALID,134,VALID,0,
2015-03-20, 07:23:04,VALID,918.985,VALID,0,VALID,98.3268,VALID,67.9028,VALID,20.3074,VALID,134,VALID,0,
2015-03-20, 07:24:04,VALID,919.005,VALID,0,VALID,98.3421,VALID,69.9442,VALID,20.3269,VALID,134,VALID,0,
2015-03-20, 07:25:04,VALID,919.012,VALID,0,VALID,98.3192,VALID,72.6302,VALID,20.3464,VALID,134,VALID,0,
2015-03-20, 07:26:04,VALID,919.039,VALID,0,VALID,98.3039,VALID,76.1758,VALID,20.4259,VALID,134,VALID,0,
2015-03-20, 07:27:04,VALID,919.006,VALID,0,VALID,98.2963,VALID,80.7957,VALID,20.4634,VALID,134,VALID,0,
2015-03-20, 07:28:04,VALID,919.032,VALID,0,VALID,98.2735,VALID,84.986,VALID,20.5024,VALID,135,VALID,0,
2015-03-20, 07:29:04,VALID,919.066,VALID,0,VALID,98.2811,VALID,88.5315,VALID,20.5414,VALID,134,VALID,0,
2015-03-20, 07:30:04,VALID,919.09,VALID,0,VALID,98.2582,VALID,92.2919,VALID,20.5999,VALID,134,VALID,0,
2015-03-20, 07:31:04,VALID,919.086,VALID,0,VALID,98.2735,VALID,94.978,VALID,20.6194,VALID,134,VALID,0,
2015-03-20, 07:32:04,VALID,919.099,VALID,0,VALID,98.2658,VALID,95.0854,VALID,20.6194,VALID,135,VALID,0,
2015-03-20, 07:33:04,VALID,919.121,VALID,0,VALID,98.2582,VALID,91.9696,VALID,20.639,VALID,134,VALID,0,
2015-03-20, 07:34:04,VALID,919.168,VALID,0,VALID,98.2201,VALID,87.2422,VALID,20.678,VALID,135,VALID,0,
2015-03-20, 07:35:04,VALID,919.214,VALID,0,VALID,98.1896,VALID,82.085,VALID,20.7365,VALID,134,VALID,0,
2015-03-20, 07:36:04,VALID,919.252,VALID,0,VALID,98.121,VALID,77.7874,VALID,20.8145,VALID,134,VALID,0,
2015-03-20, 07:37:04,VALID,919.265,VALID,0,VALID,98.1057,VALID,74.8865,VALID,20.834,VALID,134,VALID,0,
2015-03-20, 07:38:04,VALID,919.327,VALID,0,VALID,98.06,VALID,73.1674,VALID,20.873,VALID,134,VALID,0,
2015-03-20, 07:39:04,VALID,919.33,VALID,0,VALID,98.0295,VALID,72.7377,VALID,20.8324,VALID,134,VALID,0,
2015-03-20, 07:40:04,VALID,919.374,VALID,0,VALID,97.9609,VALID,73.2749,VALID,20.873,VALID,134,VALID,0,
2015-03-20, 07:41:04,VALID,919.398,VALID,0,VALID,97.9075,VALID,74.6716,VALID,20.891,VALID,134,VALID,0,
2015-03-20, 07:42:04,VALID,919.403,VALID,0,VALID,97.8465,VALID,75.9609,VALID,20.8925,VALID,134,VALID,0,
2015-03-20, 07:43:04,VALID,919.461,VALID,0,VALID,97.7779,VALID,77.4651,VALID,20.9316,VALID,134,VALID,0,
2015-03-20, 07:44:04,VALID,919.484,VALID,0,VALID,97.7169,VALID,78.432,VALID,20.9511,VALID,134,VALID,0,
2015-03-20, 07:45:04,VALID,919.463,VALID,0,VALID,97.6255,VALID,78.432,VALID,20.9511,VALID,134,VALID,0,
2015-03-20, 07:46:04,VALID,919.521,VALID,0,VALID,97.5035,VALID,79.6139,VALID,20.9316,VALID,134,VALID,0,
2015-03-20, 07:47:04,VALID,919.539,VALID,0,VALID,97.4044,VALID,83.1595,VALID,20.9105,VALID,134,VALID,0,
2015-03-20, 07:48:04,VALID,919.578,VALID,0,VALID,97.3358,VALID,88.1017,VALID,20.9706,VALID,134,VALID,0,
2015-03-20, 07:49:04,VALID,919.6,VALID,0,VALID,97.2443,VALID,93.1515,VALID,21.0096,VALID,134,VALID,0,
2015-03-20, 07:50:04,VALID,919.62,VALID,0,VALID,97.1452,VALID,97.664,VALID,21.0275,VALID,134,VALID,0,
2015-03-20, 07:51:04,VALID,919.639,VALID,0,VALID,96.9698,VALID,100.028,VALID,21.047,VALID,134,VALID,0,
2015-03-20, 07:52:04,VALID,919.667,VALID,0,VALID,96.7793,VALID,99.8128,VALID,21.0665,VALID,134,VALID,0,
2015-03-20, 07:53:04,VALID,919.697,VALID,0,VALID,96.5963,VALID,99.9203,VALID,21.1461,VALID,134,VALID,0,
2015-03-20, 07:54:04,VALID,919.684,VALID,0,VALID,96.4362,VALID,101.962,VALID,21.164,VALID,134,VALID,0,
2015-03-20, 07:55:04,VALID,919.712,VALID,0,VALID,96.299,VALID,104.54,VALID,21.2226,VALID,134,VALID,0,
2015-03-20, 07:56:04,VALID,919.726,VALID,0,VALID,96.1923,VALID,106.152,VALID,21.2616,VALID,134,VALID,0,
2015-03-20, 07:57:04,VALID,919.749,VALID,0,VALID,96.0322,VALID,105.937,VALID,21.2616,VALID,134,VALID,0,
2015-03-20, 07:58:04,VALID,919.755,VALID,0,VALID,95.651,VALID,104.433,VALID,21.2421,VALID,134,VALID,0,
2015-03-20, 07:59:04,VALID,919.781,VALID,0,VALID,95.6205,VALID,104.97,VALID,21.3006,VALID,134,VALID,0,
2015-03-20, 08:00:04,VALID,919.8,VALID,0,VALID,95.712,VALID,107.226,VALID,21.3201,VALID,134,VALID,0,
2015-03-20, 08:01:04,VALID,919.809,VALID,0,VALID,95.7272,VALID,109.59,VALID,21.3201,VALID,134,VALID,0,
2015-03-20, 08:02:04,VALID,919.802,VALID,0,VALID,95.7425,VALID,109.483,VALID,21.3201,VALID,134,VALID,0,
2015-03-20, 08:03:04,VALID,919.803,VALID,0,VALID,95.5214,VALID,107.011,VALID,21.2616,VALID,137,VALID,0,
2015-03-20, 08:04:04,VALID,919.824,VALID,0,VALID,95.2927,VALID,105.507,VALID,21.2031,VALID,137,VALID,0,
2015-03-20, 08:05:04,VALID,919.858,VALID,0,VALID,95.2698,VALID,105.83,VALID,21.2031,VALID,137,VALID,0,
2015-03-20, 08:06:04,VALID,919.866,VALID,0,VALID,95.3994,VALID,106.582,VALID,21.221,VALID,137,VALID,0,
2015-03-20, 08:07:04,VALID,919.906,VALID,0,VALID,94.7438,VALID,108.945,VALID,21.164,VALID,136,VALID,0,
2015-03-20, 08:08:04,VALID,919.937,VALID,0,VALID,94.5151,VALID,115.069,VALID,21.1852,VALID,136,VALID,0,
2015-03-20, 08:09:04,VALID,919.955,VALID,0,VALID,94.2026,VALID,123.88,VALID,21.1657,VALID,136,VALID,0,
2015-03-20, 08:10:04,VALID,919.934,VALID,0,VALID,94.1568,VALID,132.905,VALID,21.2047,VALID,136,VALID,0,
2015-03-20, 08:11:04,VALID,919.972,VALID,0,VALID,94.1263,VALID,140.855,VALID,21.2437,VALID,136,VALID,0,
2015-03-20, 08:12:04,VALID,919.998,VALID,0,VALID,94.0806,VALID,141.285,VALID,21.2811,VALID,136,VALID,0,
2015-03-20, 08:13:04,VALID,919.995,VALID,0,VALID,93.9586,VALID,136.128,VALID,21.3803,VALID,136,VALID,0,
2015-03-20, 08:14:04,VALID,919.999,VALID,0,VALID,93.8519,VALID,158.261,VALID,21.4193,VALID,136,VALID,0,
2015-03-20, 08:15:04,VALID,919.988,VALID,0,VALID,93.9738,VALID,180.501,VALID,21.5168,VALID,136,VALID,0,
2015-03-20, 08:16:04,VALID,920.005,VALID,0,VALID,93.6613,VALID,219.932,VALID,21.6339,VALID,136,VALID,0,
2015-03-20, 08:17:04,VALID,919.996,VALID,0,VALID,93.059,VALID,275.372,VALID,21.7298,VALID,136,VALID,0,
2015-03-20, 08:18:04,VALID,920.027,VALID,0,VALID,91.9613,VALID,274.19,VALID,21.9461,VALID,136,VALID,0,
2015-03-20, 08:19:04,VALID,920.008,VALID,0,VALID,89.8877,VALID,263.768,VALID,22.1413,VALID,113,VALID,0,
2015-03-20, 08:20:04,VALID,920.043,VALID,0,VALID,88.1572,VALID,247.544,VALID,22.1981,VALID,112,VALID,0,
2015-03-20, 08:21:04,VALID,920.043,VALID,0,VALID,87.2881,VALID,230.998,VALID,22.2762,VALID,34,VALID,0,
2015-03-20, 08:22:04,VALID,920.038,VALID,0,VALID,87.8218,VALID,232.61,VALID,22.3364,VALID,356,VALID,0,
2015-03-20, 08:23:04,VALID,920.056,VALID,0,VALID,88.2487,VALID,239.271,VALID,22.434,VALID,356,VALID,0,
2015-03-20, 08:24:04,VALID,920.088,VALID,0,VALID,88.7366,VALID,234.114,VALID,22.5299,VALID,24,VALID,0,
2015-03-20, 08:25:04,VALID,920.096,VALID,0,VALID,88.2868,VALID,278.38,VALID,22.6079,VALID,13,VALID,0,
2015-03-20, 08:26:04,VALID,920.121,VALID,0,VALID,87.0061,VALID,259.363,VALID,22.6665,VALID,63,VALID,0,
2015-03-20, 08:27:04,VALID,920.104,VALID,0,VALID,87.2424,VALID,261.082,VALID,22.8031,VALID,31,VALID,0,
2015-03-20, 08:28:04,VALID,920.141,VALID,0,VALID,86.1751,VALID,269.033,VALID,22.7836,VALID,338,VALID,0,
2015-03-20, 08:29:04,VALID,920.113,VALID,0,VALID,86.7545,VALID,282.248,VALID,22.7445,VALID,348,VALID,0,
2015-03-20, 08:30:04,VALID,920.109,VALID,0,VALID,87.0061,VALID,249.156,VALID,22.686,VALID,51,VALID,0,
2015-03-20, 08:31:04,VALID,920.133,VALID,0,VALID,85.2145,VALID,229.172,VALID,22.6665,VALID,360,VALID,0,
2015-03-20, 08:32:04,VALID,920.11,VALID,0,VALID,86.0684,VALID,245.825,VALID,22.647,VALID,331,VALID,0,
2015-03-20, 08:33:04,VALID,920.084,VALID,0,VALID,87.1585,VALID,266.991,VALID,22.6452,VALID,350,VALID,0,
2015-03-20, 08:34:04,VALID,920.103,VALID,0,VALID,86.8612,VALID,276.876,VALID,22.686,VALID,355,VALID,0,
2015-03-20, 08:35:04,VALID,920.114,VALID,0,VALID,86.5868,VALID,306.637,VALID,22.7038,VALID,344,VALID,0,
2015-03-20, 08:36:04,VALID,920.091,VALID,0,VALID,86.7468,VALID,274.512,VALID,22.7818,VALID,347,VALID,0,
2015-03-20, 08:37:04,VALID,920.085,VALID,0,VALID,85.2298,VALID,261.297,VALID,22.7623,VALID,344,VALID,0,
2015-03-20, 08:38:04,VALID,920.099,VALID,0,VALID,85.9693,VALID,267.528,VALID,22.7623,VALID,331,VALID,0,
2015-03-20, 08:39:04,VALID,920.083,VALID,0,VALID,86.8536,VALID,291.81,VALID,22.7818,VALID,344,VALID,0,
2015-03-20, 08:40:04,VALID,920.071,VALID,0,VALID,86.4572,VALID,287.727,VALID,22.7623,VALID,329,VALID,0,
2015-03-20, 08:41:04,VALID,920.075,VALID,0,VALID,87.1433,VALID,370.027,VALID,22.6825,VALID,327,VALID,0,
2015-03-20, 08:42:04,VALID,920.094,VALID,0,VALID,86.9756,VALID,362.829,VALID,22.6843,VALID,279,VALID,0,
2015-03-20, 08:43:04,VALID,920.112,VALID,0,VALID,87.2347,VALID,346.498,VALID,22.6647,VALID,279,VALID,0,
2015-03-20, 08:44:04,VALID,920.104,VALID,0,VALID,86.8383,VALID,292.885,VALID,22.6843,VALID,311,VALID,0,
2015-03-20, 08:45:04,VALID,920.11,VALID,0,VALID,85.5881,VALID,288.802,VALID,22.6257,VALID,265,VALID,0,
2015-03-20, 08:46:04,VALID,920.108,VALID,0,VALID,86.0531,VALID,286.975,VALID,22.6062,VALID,264,VALID,0,
2015-03-20, 08:47:04,VALID,920.124,VALID,0,VALID,85.4585,VALID,276.339,VALID,22.5672,VALID,262,VALID,0,
2015-03-20, 08:48:04,VALID,920.126,VALID,0,VALID,85.9921,VALID,273.545,VALID,22.5264,VALID,261,VALID,0,
2015-03-20, 08:49:04,VALID,920.107,VALID,0,VALID,86.3504,VALID,275.264,VALID,22.4679,VALID,261,VALID,0,
2015-03-20, 08:50:04,VALID,920.107,VALID,0,VALID,86.6096,VALID,279.132,VALID,22.4891,VALID,261,VALID,0,
2015-03-20, 08:51:04,VALID,920.068,VALID,0,VALID,87.5778,VALID,275.157,VALID,22.6257,VALID,289,VALID,0,
2015-03-20, 08:52:04,VALID,920.113,VALID,0,VALID,86.9679,VALID,272.686,VALID,22.8209,VALID,332,VALID,0,
2015-03-20, 08:53:04,VALID,920.084,VALID,0,VALID,86.2132,VALID,276.016,VALID,22.8404,VALID,326,VALID,0,
2015-03-20, 08:54:04,VALID,920.102,VALID,0,VALID,86.7697,VALID,283,VALID,22.8404,VALID,322,VALID,0,
2015-03-20, 08:55:04,VALID,920.139,VALID,0,VALID,85.9311,VALID,288.265,VALID,22.8989,VALID,322,VALID,0,
2015-03-20, 08:56:04,VALID,920.187,VALID,0,VALID,85.954,VALID,297.397,VALID,23.0551,VALID,359,VALID,0,
2015-03-20, 08:57:04,VALID,920.174,VALID,0,VALID,85.0316,VALID,297.827,VALID,23.2112,VALID,33,VALID,0,
2015-03-20, 08:58:04,VALID,920.182,VALID,0,VALID,84.2997,VALID,298.364,VALID,23.3674,VALID,30,VALID,0,
2015-03-20, 08:59:04,VALID,920.205,VALID,0,VALID,83.9796,VALID,300.943,VALID,23.4632,VALID,342,VALID,0,
2015-03-20, 09:00:04,VALID,920.229,VALID,0,VALID,82.4472,VALID,303.414,VALID,23.504,VALID,339,VALID,0,
2015-03-20, 09:01:04,VALID,920.26,VALID,0,VALID,82.9733,VALID,306.744,VALID,23.543,VALID,339,VALID,0,
2015-03-20, 09:02:04,VALID,920.251,VALID,0,VALID,82.6683,VALID,314.695,VALID,23.6193,VALID,285,VALID,0,
2015-03-20, 09:03:04,VALID,920.265,VALID,0,VALID,82.7064,VALID,420.74,VALID,23.7169,VALID,286,VALID,0,
2015-03-20, 09:04:04,VALID,920.239,VALID,0,VALID,82.4777,VALID,375.399,VALID,23.7968,VALID,278,VALID,0,
2015-03-20, 09:05:04,VALID,920.24,VALID,0,VALID,82.2185,VALID,348.324,VALID,23.6974,VALID,267,VALID,0,
2015-03-20, 09:06:04,VALID,920.226,VALID,0,VALID,83.5908,VALID,329.952,VALID,23.6211,VALID,267,VALID,0,
2015-03-20, 09:07:04,VALID,920.258,VALID,0,VALID,83.3925,VALID,312.976,VALID,23.5821,VALID,240,VALID,0,
2015-03-20, 09:08:04,VALID,920.288,VALID,0,VALID,83.2706,VALID,304.488,VALID,23.4845,VALID,241,VALID,0,
2015-03-20, 09:09:04,VALID,920.297,VALID,0,VALID,82.7369,VALID,318.885,VALID,23.3461,VALID,241,VALID,0,
2015-03-20, 09:10:04,VALID,920.326,VALID,0,VALID,83.7356,VALID,274.512,VALID,23.2893,VALID,265,VALID,0,
2015-03-20, 09:11:04,VALID,920.336,VALID,0,VALID,83.4993,VALID,277.091,VALID,23.2502,VALID,290,VALID,0,
2015-03-20, 09:12:04,VALID,920.329,VALID,0,VALID,83.4764,VALID,271.719,VALID,23.1722,VALID,288,VALID,0,
2015-03-20, 09:13:04,VALID,920.335,VALID,0,VALID,83.3925,VALID,261.512,VALID,23.0338,VALID,298,VALID,0,
2015-03-20, 09:14:04,VALID,920.378,VALID,0,VALID,84.254,VALID,278.487,VALID,22.938,VALID,289,VALID,0,
2015-03-20, 09:15:04,VALID,920.409,VALID,0,VALID,85.7024,VALID,337.795,VALID,22.8582,VALID,289,VALID,0,
2015-03-20, 09:16:04,VALID,920.398,VALID,0,VALID,86.1294,VALID,434.277,VALID,22.9965,VALID,24,VALID,0,
2015-03-20, 09:17:04,VALID,920.417,VALID,0,VALID,85.1002,VALID,598.662,VALID,23.1527,VALID,30,VALID,0,
2015-03-20, 09:18:04,VALID,920.421,VALID,0,VALID,84.5208,VALID,408.706,VALID,23.4437,VALID,324,VALID,0,
2015-03-20, 09:19:04,VALID,920.403,VALID,0,VALID,83.3392,VALID,406.02,VALID,23.7169,VALID,6,VALID,0,
2015-03-20, 09:20:04,VALID,920.414,VALID,0,VALID,80.4728,VALID,402.689,VALID,23.9121,VALID,281,VALID,0,
2015-03-20, 09:21:04,VALID,920.435,VALID,0,VALID,81.2504,VALID,408.491,VALID,23.8145,VALID,300,VALID,0,
2015-03-20, 09:22:04,VALID,920.413,VALID,0,VALID,82.188,VALID,395.598,VALID,23.8536,VALID,313,VALID,0,
2015-03-20, 09:23:04,VALID,920.451,VALID,0,VALID,81.2809,VALID,440.186,VALID,23.8536,VALID,276,VALID,0,
2015-03-20, 09:24:04,VALID,920.491,VALID,0,VALID,81.2427,VALID,548.917,VALID,23.795,VALID,261,VALID,0,
2015-03-20, 09:25:04,VALID,920.449,VALID,0,VALID,81.7688,VALID,589.422,VALID,23.8926,VALID,255,VALID,0.0246094,
2015-03-20, 09:26:04,VALID,920.456,VALID,0,VALID,82.5082,VALID,430.946,VALID,23.9902,VALID,241,VALID,0,
2015-03-20, 09:27:04,VALID,920.493,VALID,0,VALID,80.8921,VALID,391.193,VALID,23.9884,VALID,246,VALID,0,
2015-03-20, 09:28:04,VALID,920.533,VALID,0,VALID,80.2212,VALID,649.159,VALID,24.1073,VALID,310,VALID,1.23281,
2015-03-20, 09:29:04,VALID,920.512,VALID,0,VALID,80.61,VALID,383.243,VALID,24.0488,VALID,314,VALID,1.01523,
2015-03-20, 09:30:04,VALID,920.523,VALID,0,VALID,82.2262,VALID,635.837,VALID,24.0079,VALID,16,VALID,0.588672,
2015-03-20, 09:31:04,VALID,920.532,VALID,0,VALID,82.7598,VALID,522.164,VALID,24.1854,VALID,16,VALID,0.795703,
2015-03-20, 09:32:04,VALID,920.564,VALID,0,VALID,82.1804,VALID,378.837,VALID,24.3788,VALID,13,VALID,0.607031,
2015-03-20, 09:33:04,VALID,920.564,VALID,0,VALID,80.7853,VALID,349.828,VALID,24.6149,VALID,335,VALID,0.763281,
2015-03-20, 09:34:04,VALID,920.562,VALID,0,VALID,78.5745,VALID,383.35,VALID,24.8083,VALID,336,VALID,0.675,
2015-03-20, 09:35:04,VALID,920.568,VALID,0,VALID,75.5023,VALID,487.353,VALID,24.7888,VALID,294,VALID,0.497656,
2015-03-20, 09:36:04,VALID,920.559,VALID,0,VALID,77.8427,VALID,282.355,VALID,24.8102,VALID,248,VALID,0.494141,
2015-03-20, 09:37:04,VALID,920.576,VALID,0,VALID,78.1476,VALID,290.306,VALID,24.8492,VALID,348,VALID,0.628906,
2015-03-20, 09:38:04,VALID,920.585,VALID,0,VALID,77.7436,VALID,294.819,VALID,24.8688,VALID,11,VALID,0.866797,
2015-03-20, 09:39:04,VALID,920.581,VALID,0,VALID,75.6014,VALID,308.249,VALID,24.7907,VALID,7,VALID,0,
2015-03-20, 09:40:04,VALID,920.571,VALID,0,VALID,77.8122,VALID,318.67,VALID,24.654,VALID,27,VALID,0,
2015-03-20, 09:41:04,VALID,920.61,VALID,0,VALID,77.4387,VALID,320.282,VALID,24.5759,VALID,27,VALID,0,
2015-03-20, 09:42:04,VALID,920.582,VALID,0,VALID,76.6382,VALID,315.125,VALID,24.6345,VALID,11,VALID,0,
2015-03-20, 09:43:04,VALID,920.562,VALID,0,VALID,76.7221,VALID,303.951,VALID,24.7126,VALID,24,VALID,0,
2015-03-20, 09:44:04,VALID,920.567,VALID,0,VALID,76.8059,VALID,307.819,VALID,24.654,VALID,38,VALID,0.566016,
2015-03-20, 09:45:04,VALID,920.578,VALID,0,VALID,78.3382,VALID,341.341,VALID,24.4587,VALID,28,VALID,0,
2015-03-20, 09:46:04,VALID,920.554,VALID,0,VALID,77.4539,VALID,566,VALID,24.4002,VALID,340,VALID,0.0398437,
2015-03-20, 09:47:04,VALID,920.516,VALID,0,VALID,77.1718,VALID,659.259,VALID,24.4392,VALID,4,VALID,0.205078,
2015-03-20, 09:48:04,VALID,920.488,VALID,0,VALID,78.0866,VALID,683.648,VALID,24.4587,VALID,19,VALID,1.24844,
2015-03-20, 09:49:04,VALID,920.499,VALID,0,VALID,81.0064,VALID,653.672,VALID,24.4374,VALID,11,VALID,1.97812,
2015-03-20, 09:50:04,VALID,920.518,VALID,0,VALID,78.5593,VALID,638.523,VALID,24.5368,VALID,10,VALID,1.09375,
2015-03-20, 09:51:04,VALID,920.51,VALID,0,VALID,78.6203,VALID,598.77,VALID,24.5759,VALID,359,VALID,2.02578,
2015-03-20, 09:52:04,VALID,920.512,VALID,0,VALID,78.0714,VALID,600.596,VALID,24.5759,VALID,12,VALID,1.575,
2015-03-20, 09:53:04,VALID,920.547,VALID,0,VALID,77.0346,VALID,526.462,VALID,24.6735,VALID,2,VALID,0.678125,
2015-03-20, 09:54:04,VALID,920.533,VALID,0,VALID,77.6597,VALID,315.877,VALID,24.8688,VALID,6,VALID,0.90625,
2015-03-20, 09:55:04,VALID,920.517,VALID,0,VALID,77.553,VALID,328.125,VALID,25.0231,VALID,356,VALID,0.5125,
2015-03-20, 09:56:04,VALID,920.525,VALID,0,VALID,75.2431,VALID,426.541,VALID,25.0817,VALID,11,VALID,2.37031,
2015-03-20, 09:57:04,VALID,920.511,VALID,0,VALID,75.4947,VALID,590.819,VALID,24.8864,VALID,35,VALID,1.92969,
2015-03-20, 09:58:04,VALID,920.545,VALID,0,VALID,76.3028,VALID,605.109,VALID,24.7302,VALID,58,VALID,0.151172,
2015-03-20, 09:59:04,VALID,920.532,VALID,0,VALID,78.6813,VALID,611.985,VALID,24.7497,VALID,357,VALID,0,
2015-03-20, 10:00:04,VALID,920.558,VALID,0,VALID,77.8427,VALID,613.059,VALID,25.0231,VALID,353,VALID,0,
2015-03-20, 10:01:04,VALID,920.531,VALID,0,VALID,75.731,VALID,637.019,VALID,25.1988,VALID,331,VALID,0,
2015-03-20, 10:02:04,VALID,920.525,VALID,0,VALID,75.6319,VALID,659.151,VALID,25.316,VALID,1,VALID,0,
2015-03-20, 10:03:04,VALID,920.513,VALID,0,VALID,72.9256,VALID,661.408,VALID,25.4917,VALID,354,VALID,0,
2015-03-20, 10:04:04,VALID,920.515,VALID,0,VALID,74.4122,VALID,658.077,VALID,25.5698,VALID,15,VALID,0.762891,
2015-03-20, 10:05:04,VALID,920.509,VALID,0,VALID,73.3296,VALID,688.805,VALID,25.4917,VALID,29,VALID,0.89375,
2015-03-20, 10:06:04,VALID,920.531,VALID,0,VALID,73.7642,VALID,694.177,VALID,25.5308,VALID,357,VALID,0.0417969,
2015-03-20, 10:07:04,VALID,920.513,VALID,0,VALID,71.9727,VALID,709.004,VALID,25.7066,VALID,343,VALID,0,
2015-03-20, 10:08:04,VALID,920.531,VALID,0,VALID,70.4404,VALID,391.301,VALID,25.5698,VALID,267,VALID,0.322656,
2015-03-20, 10:09:04,VALID,920.491,VALID,0,VALID,71.7211,VALID,286.438,VALID,25.316,VALID,267,VALID,0,
2015-03-20, 10:10:04,VALID,920.491,VALID,0,VALID,73.3373,VALID,290.413,VALID,25.2398,VALID,279,VALID,0,
2015-03-20, 10:11:04,VALID,920.463,VALID,0,VALID,73.1924,VALID,302.017,VALID,25.3765,VALID,281,VALID,0,
2015-03-20, 10:12:04,VALID,920.469,VALID,0,VALID,73.322,VALID,318.026,VALID,25.2574,VALID,309,VALID,0.120703,
2015-03-20, 10:13:04,VALID,920.452,VALID,0,VALID,72.7045,VALID,354.986,VALID,25.0445,VALID,309,VALID,0.0457031,
2015-03-20, 10:14:04,VALID,920.448,VALID,0,VALID,73.8023,VALID,658.292,VALID,24.9469,VALID,323,VALID,0,
2015-03-20, 10:15:04,VALID,920.428,VALID,0,VALID,72.0032,VALID,487.783,VALID,25.1226,VALID,338,VALID,0.456641,
2015-03-20, 10:16:04,VALID,920.455,VALID,0,VALID,73.1467,VALID,465.435,VALID,25.1988,VALID,358,VALID,1.60742,
2015-03-20, 10:17:04,VALID,920.436,VALID,0,VALID,73.6956,VALID,281.173,VALID,25.1402,VALID,1,VALID,0.871484,
2015-03-20, 10:18:04,VALID,920.454,VALID,0,VALID,74.435,VALID,268.71,VALID,25.1226,VALID,353,VALID,0.660937,
2015-03-20, 10:19:04,VALID,920.415,VALID,0,VALID,73.5202,VALID,270.107,VALID,25.2593,VALID,339,VALID,0,
2015-03-20, 10:20:04,VALID,920.434,VALID,0,VALID,74.031,VALID,263.231,VALID,25.3374,VALID,339,VALID,0,
2015-03-20, 10:21:04,VALID,920.424,VALID,0,VALID,72.5063,VALID,267.636,VALID,25.357,VALID,356,VALID,0,
2015-03-20, 10:22:04,VALID,920.422,VALID,0,VALID,75.8987,VALID,276.446,VALID,25.1793,VALID,1,VALID,1.17148,
2015-03-20, 10:23:04,VALID,920.378,VALID,0,VALID,75.2584,VALID,265.595,VALID,25.1012,VALID,355,VALID,1.10156,
2015-03-20, 10:24:04,VALID,920.402,VALID,0,VALID,76.3638,VALID,264.305,VALID,25.0231,VALID,357,VALID,0.567969,
2015-03-20, 10:25:04,VALID,920.388,VALID,0,VALID,75.7996,VALID,277.628,VALID,25.0055,VALID,3,VALID,1.69727,
2015-03-20, 10:26:04,VALID,920.414,VALID,0,VALID,76.7373,VALID,309.538,VALID,24.9645,VALID,2,VALID,0.680078,
2015-03-20, 10:27:04,VALID,920.394,VALID,0,VALID,75.5023,VALID,299.546,VALID,24.9664,VALID,2,VALID,0.69375,
2015-03-20, 10:28:04,VALID,920.406,VALID,0,VALID,76.4781,VALID,277.521,VALID,24.9469,VALID,2,VALID,0.452344,
2015-03-20, 10:29:04,VALID,920.406,VALID,0,VALID,75.327,VALID,255.28,VALID,24.9645,VALID,2,VALID,0.421484,
2015-03-20, 10:30:04,VALID,920.351,VALID,0,VALID,75.853,VALID,279.992,VALID,24.984,VALID,2,VALID,0,
2015-03-20, 10:31:04,VALID,920.371,VALID,0,VALID,77.1642,VALID,332.53,VALID,25.1207,VALID,2,VALID,0.514453,
2015-03-20, 10:32:04,VALID,920.355,VALID,0,VALID,76.1656,VALID,621.762,VALID,25.2965,VALID,2,VALID,0.628125,
2015-03-20, 10:33:04,VALID,920.36,VALID,0,VALID,74.3817,VALID,816.983,VALID,25.4917,VALID,3,VALID,1.07734,
2015-03-20, 10:34:04,VALID,920.372,VALID,0,VALID,74.2368,VALID,820.635,VALID,25.6675,VALID,3,VALID,0.2625,
2015-03-20, 10:35:04,VALID,920.309,VALID,0,VALID,72.9485,VALID,777.552,VALID,25.9019,VALID,3,VALID,0.660937,
2015-03-20, 10:36:04,VALID,920.275,VALID,0,VALID,72.8646,VALID,305.348,VALID,26.0972,VALID,2,VALID,0.519922,
2015-03-20, 10:37:04,VALID,920.313,VALID,0,VALID,70.4709,VALID,281.926,VALID,26.273,VALID,284,VALID,1.29102,
2015-03-20, 10:38:04,VALID,920.264,VALID,0,VALID,71.2027,VALID,285.793,VALID,26.0581,VALID,273,VALID,0.4125,
2015-03-20, 10:39:04,VALID,920.216,VALID,0,VALID,72.4377,VALID,377.548,VALID,25.8237,VALID,271,VALID,0.647656,
2015-03-20, 10:40:04,VALID,920.204,VALID,0,VALID,73.3678,VALID,463.931,VALID,25.687,VALID,271,VALID,0.580469,
2015-03-20, 10:41:04,VALID,920.217,VALID,0,VALID,74.5265,VALID,322.216,VALID,25.5698,VALID,258,VALID,1.1625,
2015-03-20, 10:42:04,VALID,920.206,VALID,0,VALID,74.1072,VALID,300.943,VALID,25.5132,VALID,253,VALID,1.22617,
2015-03-20, 10:43:04,VALID,920.203,VALID,0,VALID,75.7234,VALID,298.579,VALID,25.4546,VALID,226,VALID,0.785937,
2015-03-20, 10:44:04,VALID,920.172,VALID,0,VALID,75.4718,VALID,315.017,VALID,25.5503,VALID,226,VALID,0.185547,
2015-03-20, 10:45:04,VALID,920.179,VALID,0,VALID,74.8543,VALID,386.573,VALID,25.648,VALID,250,VALID,0.712109,
2015-03-20, 10:46:04,VALID,920.174,VALID,0,VALID,73.848,VALID,534.52,VALID,25.648,VALID,243,VALID,1.13789,
2015-03-20, 10:47:04,VALID,920.148,VALID,0,VALID,73.0476,VALID,924.316,VALID,25.5698,VALID,251,VALID,0.421094,
2015-03-20, 10:48:04,VALID,920.144,VALID,0,VALID,70.6996,VALID,928.829,VALID,25.8237,VALID,232,VALID,0.694922,
2015-03-20, 10:49:04,VALID,920.16,VALID,0,VALID,71.2332,VALID,927.002,VALID,26.1558,VALID,270,VALID,1.25,
2015-03-20, 10:50:04,VALID,920.138,VALID,0,VALID,72.5368,VALID,921.415,VALID,26.2534,VALID,270,VALID,0.932422,
2015-03-20, 10:51:04,VALID,920.159,VALID,0,VALID,72.1328,VALID,866.405,VALID,26.3902,VALID,262,VALID,0.540625,
2015-03-20, 10:52:04,VALID,920.173,VALID,0,VALID,72.6283,VALID,923.994,VALID,26.566,VALID,216,VALID,0.602734,
2015-03-20, 10:53:04,VALID,920.161,VALID,0,VALID,70.6996,VALID,698.475,VALID,26.6246,VALID,299,VALID,0.958594,